Location: Eexterzandvoort
(53.0303°N, 6.7884°E)
Time: 19:02:39
(UTC+00:00)

ATLAS 3B R/B - Pass Details

Date: 19 May 2025
Orbit: 935 x 1258 km, 63.8° (Epoch: 20 June)

Event Time Altitude Azimuth Distance (km) Brightness Sun altitude
Exits shadow 23:17:16 16° 214° (SW) 2,670 4.3 -16.9°
Maximum altitude 23:23:31 77° 131° (SE) 1,257 2.9 -17.0°
Drops below altitude 10° 23:31:23 10° 47° (NE) 3,244 5.8 -17.0°
Sets 23:34:13 0° 47° (NE) 4,220 6.5 -17.0°
